Погода в Ялтуровске

Погода в Ялтуровске : погода сейчас, прогноз погоды и архив. Всё, что Вы хотите узнать о погоде в Ялтуровске!

Хотите узнать прогноз погоды в Ялтуровске? Тогда Вам сюда: Погода в Ялтуровске

Поиск расширенной информации на нашем сайте:

Другие новости

Новости СМИ2

Главная страница сайта

Новости сайта

02.10.2013

Напоминаем, что на нашем новом сайте вы можете получить высокодетализированные прогнозы погоды по пунктам России, СНГ и мира (включающие важные для авиации метеовеличины, такие как направление и скорость ветра, видимость, явления погоды, количество и форма облачности, нижняя и верхняя граница облачности), а также ознакомиться с разнообразными материалами по авиационной метеорологии и подборкой полезных ссылок на эту тему.

Сайт Метеоцентр.Азия посвящён разработке технологий оптимизации авиаметеорологического обслуживания, включая проектирование и перспективное создание нескольких автоматизированных авиаметеорологических систем:
- система выпуска высокодетальных прогностических карт явлений погоды для нижнего воздушного пространства по России и ближнему зарубежью;
- система верификации прогнозов TAF (выпускаемых синоптиками официальных АМСГ РФ и ближнего зарубежья) и AUTOTAF (выпускаемых сайтом Метеоцентр.Азия) - выявление ошибок, онлайн-сопоставление с фактической погодой METAR, автоматическое внесение коррективов в прогнозы при резком отклонении фактической погоды от прогноза, подсчёт оправдываемости прогнозов по элементам и в целом;
- система обработки, анализа и отображения авиаметеорологической информации для применения провайдерами метеорологической информации.

Рекомендуем: Информация полировка фар цена здесь.

Погода в Ялтуровске - сегодня

Время (UTC), дата Ветер
(°,м/с) 
Видим.   Явления Облачность Т
(°С)
Тd
(°С)
f(%) Тe
(°С)
Pmin
(гПа)
dP
(гПа)
Po
(мм)
O2
(г/м3)
Тmin Tmax R s Состояние
почвы
15 22.04.17 220 (ЮЗ) 20000 м    8/0 верхняя 
[Ci sp]
+7.5 -10 28 +7  1014.2  755  297    +11.1       
18 22.04.17 190 (Ю) 20000 м    10/0 верхняя 
[Ci sp]
+3.5 -4.9 54 +2  1014.9  0.6  755  301           
21 22.04.17 170 (Ю) 20000 м    10/0 верхняя 
[Ci sp]
+5.1 -6.4 43 +3  1014.5  -0.4  755  299           
00 23.04.17 160 (Ю) 20000 м    10/0 верхняя 
[Ci sp]
+4.6 -5.1 49 +3  1014.1  -0.4  755  300           
03 23.04.17 150 (ЮВ) 20000 м    10/0 верхняя 
[Ci sp]
+6 -4.4 47 +4  1011.7  -2.3  753  297  +2.6        влажная 
06 23.04.17 150 (ЮВ) 8-13{16}  20000 м    10/0 верхняя 
[Ci sp]
+9.3 -4.7 37 +7  1008.1  -3.5  751  293           
09 23.04.17 120 (ЮВ) 9-15{16}  20000 м    10/0 средняя 
[As op]
+10.1 -4.7 35 +8  1004.5  -3.5  748  291           
12 23.04.17 120 (ЮВ) 5{15}  20000 м    10/6 600 м средняя 
[Sc|As op]
+10 -2.9 40 +9  1003.9  -0.6  747  291           
15 23.04.17 120 (ЮВ) 4{12}  20000 м    10/8 600 м средняя 
[Sc|As op]
+6.1 +2.3 77 +5  1004.6  0.7  748  294    +11       
18 23.04.17 тихо ()   20000 м    10/8 600 м средняя 
[Sc|As op]
+5.7 +2.5 80 +6  1006.2  1.6  749  295           
21 23.04.17 280 (З) 20000 м  {дождь}  4/0 средняя, верхняя 
[As op|Ci sp]
+4.2 +2.6 89 +4  1009.7  3.4  752  298           
00 24.04.17 250 (З) 20000 м  {дождь}  10/0 средняя 
[Ac und]
+4.7 +2.4 85 +4  1012.1  2.4  753  298           
03 24.04.17 260 (З) 20000 м    1/1 1000 м 
[Cu hum]
+7.3 +2.8 73 +6  1014.8  2.7  755  296  +3.3    0.1    влажная 
06 24.04.17 230 (ЮЗ) 20000 м    10/0 средняя, верхняя 
[Ac trans|Ci sp]
+10 -0.1 49 +9  1016.7  757  294           
09 24.04.17 250 (З) 20000 м    6/0 верхняя 
[Ci fib]
+13.7 -2.9 31 +13  1016.9  0.2  757  291           
12 24.04.17 220 (ЮЗ) 20000 м    10/0 средняя 
[Ac As]
+14.1 -4 28 +14  1016.9  0.1  757  291           
15 24.04.17 180 (Ю) 20000 м    10/0 средняя 
[As op]
+10.5 +1.3 53 +11  1017  -0.1  757  294    +15.2       
18 24.04.17 120 (ЮВ) 20000 м  {дождь}  10/0 средняя 
[As op]
+10 +1.5 55 +10  1015.8  -1.2  756  294           
21 24.04.17 150 (ЮВ) 7-11{11}  20000 м    10/0 средняя 
[As op]
+11.3 +2.6 55 +10  1012.9  -2.8  754  291           
00 25.04.17 160 (Ю) 7{13}  20000 м    10/0 средняя 
[Ac As]
+11.7 +3 55 +10  1010.4  -2.5  752  290           
03 25.04.17 160 (Ю) 4000 м  слаб. дождь  10/10 600 м 
[Sc]
+11.4 +5.2 66 +10  1009.1  -1.3  751  290  +9    0.0    влажная 
06 25.04.17 180 (Ю) 7-11{13}  20000 м  {дождь}  10/10 600 м 
[Sc]
+12.9 +7.4 69 +12  1008.9  -0.1  751  288           
09 25.04.17 190 (Ю) 8-12{13}  20000 м    10/6 600 м кучево-дожд., средняя, верхняя 
[Cb calv|Ac trans|Ci sp]
+15.3 +9.2 67 +14  1010.6  1.8  753  286           
12 25.04.17 190 (Ю) 6{13}  20000 м    10/0 верхняя 
[Ci sp]
+17.2 +8.7 57 +17  1011.8  1.2  753  284           
15 25.04.17 170 (Ю) 4{11}  20000 м    8/0 верхняя 
[Ci sp]
+14.3 +8.9 70 +14  1013.2  1.3  754  287    +18  0.0     
Время (UTC), дата Ветер
(°,м/с) 
Видим.   Явления Облачность Т
(°С)
Тd
(°С)
f(%) Тe
(°С)
Pmin
(гПа)
dP
(гПа)
Po
(мм)
O2
(г/м3)
Тmin Tmax R s Состояние
почвы

Для получения пояснительной информации подведите курсор к названию столбца.

ПОГОДА в Ялтуровске - архив

Всё, что Вы хотите узнать о погоде в Ялтуровске - удобно и подробно!

Выберите нужную дату (начиная с 1 января 2015* года) и нажмите кнопку "Найти".
Будут отображены архивные сводки погоды по пункту Ялтуровск, начиная с указанной даты.


Отображать данные в формате CSV (для использования в таблицах Excel)


Внимание! Наш архив погоды предназначен исключительно для личного некоммерческого использования в познавательных целях. Если Вам необходимы официальные справки о состоянии погоды (для производственных, юридических, коммерческих и т.п. целей), обращайтесь в органы Росгидромета.

*Примечание: данная дата относится к архиву по метеостанциям СССР (Россия, СНГ, Балтия).
Архив по метеостанциям Зарубежной Европы и Азии (кроме Китая) хранится 10 дней, по другим регионам земного шара (Китай, Африка, Америка, Австралия, Океания) - 1 день.

Ялтуровск - район местоположения метеостанции


Название, широта, долгота, высота метеостанции:
Ялтуровск 56.7°ш. 66.3°д. 61 м над ур. моря [Российская Федерация]

Дополнительная информация

В oтличие oт бoльшинства пoгoдных сайтoв мы публикуем пoдрoбную метеoинфoрмацию в детальнoм прoфессиoнальнoм фoрмате.

Характеристики температуры и влажнoсти вoздуха измеряются на высoте 2 м в тени вдали oт зданий и деревьев.
Скoрoсть ветра измеряется на высoте 10 м (на урoвне рoста челoвека скoрoсть ветра ниже в 1.5-2 раза). Если метеoстанция нахoдится в гoрoде или в лесу, тo скoрoсть ветра занижена на 2-4 м/с пo сравнению с oткрытым местoм. Скoрoсть ветра над акватoриями крупных рек и oзёр, а также на вершинах хoлмoв на 2-5 м/с выше, чем в oбычных услoвиях.
Атмoсфернoе давление в разных тoчках местнoсти мoжет значительнo oтличаться oт давления на метеoстанции, в зависимoсти oт услoвий рельефа (при пoдъёме на 10 м давление пoнижается примернo на 1 мм рт.ст.).